Location: Betra
(48.4113°N, 8.6634°E)
Time: 08:11:51
(UTC+00:00)

USA 267 - Pass Details

Date: 23 May 2024
Orbit: 1101 x 1106 km, 123.0° (Epoch: 01 May)

Event Time Altitude Azimuth Distance (km) Brightness Sun altitude
Rises 01:46:14 0° 64° (ENE) 3,930 7.3 -13.8°
Reaches altitude 10° 01:48:49 10° 59° (ENE) 2,972 6.6 -13.6°
Maximum altitude 01:55:00 46° 349° (NNW) 1,453 4.2 -13.0°
Drops below altitude 10° 02:01:10 10° 279° (W) 2,970 5.2 -12.3°
Enters shadow 02:05:11 -5° 271° (W) 4,473 6.1 -11.9°
